Lovelock, NV

2:33 PM PDT on April 25, 2017 (GMT -0700)
Derby

Weather History for KLOL - July, 2013

Change the Weather History Date:

Wednesday, July 10, 2013

  Actual Average Record
Temperature  
Mean Temperature 76 °F -  
Max Temperature 100 °F 91 °F 109 °F (2007)
Min Temperature 53 °F 54 °F 43 °F (1980)
Cooling Degree Days 10    
Growing Degree Days 26 (Base 50)    
Moisture  
Dew Point 29 °F    
Average Humidity 18    
Maximum Humidity 34    
Minimum Humidity 7    
Precipitation  
Precipitation 0.00 in - - ()
Sea Level Pressure  
Sea Level Pressure 29.93 in    
Wind  
Wind Speed 6 mph (WSW)    
Max Wind Speed 18 mph    
Max Gust Speed 32 mph    
Visibility 10 miles    
Events      
Averages and records for this station are not official NWS values.
T = Trace of Precipitation, MM = Missing Value Source: NWS Daily Summary

Daily Weather History Graph

Daily Weather History Graph

Search for Another Location

Airport or City:

Trip Planner

Search our weather history database for the weather conditions in past years. The results will help you decide how hot, cold, wet, or windy it might be!

Date:

Astronomy

Jul. 10, 2013 Rise Set
Actual Time 5:34 AM PDT 8:24 PM PDT
Civil Twilight 5:02 AM PDT 8:56 PM PDT
Nautical Twilight 4:21 AM PDT 9:37 PM PDT
Astronomical Twilight 3:34 AM PDT 10:23 PM PDT
Moon 8:00 AM PDT (7/10) 9:36 PM PDT (7/10)
Length of Visible Light 15h 54m
Length of Day
14h 50m
Waxing Crescent, 6% of the Moon is Illuminated
Jul 10
Waxing Crescent
Jul 15
First Quarter
Jul 22
Full
Jul 29
Last Quarter
Aug 6
New

Hourly Weather History & Observations

Time (PDT) Temp. Dew Point Humidity Pressure Visibility Wind Dir Wind Speed Gust Speed Precip Events Conditions
12:53 AM 66.0 °F 30.9 °F 27% 29.98 in 10.0 mi SSE 8.1 mph - N/A   Clear
1:53 AM 62.1 °F 30.0 °F 30% 29.98 in 10.0 mi North 3.5 mph - N/A   Clear
2:53 AM 62.1 °F 28.9 °F 29% 29.98 in 10.0 mi Calm Calm - N/A   Clear
3:53 AM 57.9 °F 27.0 °F 31% 29.99 in 10.0 mi West 4.6 mph - N/A   Clear
4:53 AM 54.0 °F 26.1 °F 34% 30.00 in 10.0 mi Calm Calm - N/A   Clear
5:53 AM 53.1 °F 24.1 °F 32% 30.01 in 10.0 mi Calm Calm - N/A   Clear
6:53 AM 61.0 °F 28.0 °F 29% 30.01 in 10.0 mi Calm Calm - N/A   Clear
7:53 AM 71.1 °F 30.0 °F 22% 30.02 in 10.0 mi Calm Calm - N/A   Clear
8:53 AM 79.0 °F 30.0 °F 17% 30.01 in 10.0 mi Calm Calm - N/A   Clear
9:53 AM 82.9 °F 28.9 °F 14% 29.99 in 10.0 mi South 5.8 mph - N/A   Clear
10:53 AM 87.1 °F 28.0 °F 12% 29.98 in 10.0 mi Variable 5.8 mph - N/A   Clear
11:53 AM 90.0 °F 25.0 °F 10% 29.96 in 10.0 mi WSW 5.8 mph - N/A   Clear
12:53 PM 93.0 °F 21.0 °F 7% 29.94 in 10.0 mi SSW 12.7 mph 20.7 mph N/A   Clear
1:53 PM 93.0 °F 21.0 °F 7% 29.92 in 10.0 mi Variable 6.9 mph - N/A   Clear
2:53 PM 93.9 °F 23.0 °F 8% 29.90 in 10.0 mi SE 6.9 mph 16.1 mph N/A   Clear
3:53 PM 95.0 °F 27.0 °F 9% 29.87 in 10.0 mi SSW 10.4 mph - N/A   Clear
4:53 PM 98.1 °F 30.0 °F 9% 29.85 in 10.0 mi West 17.3 mph 32.2 mph N/A   Clear
5:10 PM 97.0 °F 30.0 °F 9% 29.97 in 10.0 mi SW 16.1 mph - N/A   Clear
5:53 PM 93.9 °F 30.9 °F 11% 29.84 in 10.0 mi SW 12.7 mph - N/A   Clear
6:53 PM 93.0 °F 32.0 °F 12% 29.83 in 10.0 mi WSW 18.4 mph 29.9 mph N/A   Clear
7:53 PM 90.0 °F 34.0 °F 14% 29.83 in 10.0 mi West 18.4 mph 32.2 mph N/A   Clear
8:53 PM 84.9 °F 36.0 °F 17% 29.85 in 10.0 mi WSW 9.2 mph - N/A   Clear
9:53 PM 84.9 °F 34.0 °F 16% 29.87 in 10.0 mi West 15.0 mph - N/A   Mostly Cloudy
10:53 PM 84.0 °F 34.0 °F 17% 29.86 in 10.0 mi West 13.8 mph - N/A   Partly Cloudy
11:53 PM 84.0 °F 34.0 °F 17% 29.86 in 10.0 mi Calm Calm - N/A   Partly Cloudy